GSAT0101 (GALILEO-PFM) 1 37846U 11060A 26116.22899249 -.00000091 00000+0 00000+0 0 9996 2 37846 57.0096 343.1709 0003765 27.2500 332.8105 1.70475694 90230 GSAT0102 (GALILEO-FM2) 1 37847U 11060B 26119.39239563 -.00000091 00000+0 00000+0 0 9995 2 37847 57.0099 343.0855 0004512 5.4903 181.5954 1.70476048 90292 GSAT0103 (GALILEO-FM3) 1 38857U 12055A 26119.20231690 .00000033 00000+0 00000+0 0 9990 2 38857 55.7771 102.8882 0005869 296.1351 63.7880 1.70473451 84173 GSAT0201 (GALILEO 5) 1 40128U 14050A 26116.13529482 -.00000064 00000+0 00000+0 0 9994 2 40128 48.9332 275.5670 1666333 177.3572 183.6448 1.85519973 77352 GSAT0202 (GALILEO 6) 1 40129U 14050B 26120.16389937 -.00000083 00000+0 00000+0 0 9993 2 40129 48.9458 274.4873 1668070 178.2451 182.4187 1.85520667 79598 GSAT0203 (GALILEO 7) 1 40544U 15017A 26120.11307455 -.00000090 00000+0 00000+0 0 9996 2 40544 56.8042 342.9065 0002302 308.1059 51.9179 1.70476006 68384 GSAT0204 (GALILEO 8) 1 40545U 15017B 26115.08949468 -.00000090 00000+0 00000+0 0 9993 2 40545 56.8095 343.0621 0001552 296.0698 63.9535 1.70475480 31343 GSAT0205 (GALILEO 9) 1 40889U 15045A 26115.63255192 -.00000038 00000+0 00000+0 0 9992 2 40889 54.9613 223.1764 0005159 266.9978 92.9342 1.67410754 66085 GSAT0206 (GALILEO 10) 1 40890U 15045B 26120.35737389 -.00000019 00000+0 00000+0 0 9991 2 40890 54.9597 222.9247 0001801 27.3233 332.6923 1.70474007 66224 GSAT0209 (GALILEO 12) 1 41174U 15079A 26118.76559823 .00000035 00000+0 00000+0 0 9998 2 41174 55.7996 102.6159 0005668 329.4210 30.5313 1.70474123 63935 GSAT0208 (GALILEO 11) 1 41175U 15079B 26119.57244455 .00000031 00000+0 00000+0 0 9997 2 41175 55.7968 102.5909 0005046 330.4475 29.5047 1.70474027 64365 GSAT0211 (GALILEO 14) 1 41549U 16030A 26118.52334768 -.00000033 00000+0 00000+0 0 9994 2 41549 55.1105 223.0603 0002497 355.5704 4.4217 1.70474172 61827 GSAT0210 (GALILEO 13) 1 41550U 16030B 26119.36721155 -.00000027 00000+0 00000+0 0 9992 2 41550 55.1096 223.0352 0002963 228.3755 131.5982 1.70474107 61830 GSAT0207 (GALILEO 15) 1 41859U 16069A 26119.64542367 .00000029 00000+0 00000+0 0 9994 2 41859 55.4691 102.4278 0005890 317.6958 42.2389 1.70474044 58578 GSAT0212 (GALILEO 16) 1 41860U 16069B 26119.49890933 .00000030 00000+0 00000+0 0 9996 2 41860 55.4658 102.4270 0004672 341.5358 18.4283 1.70474208 58820 GSAT0213 (GALILEO 17) 1 41861U 16069C 26118.10651298 .00000037 00000+0 00000+0 0 9990 2 41861 55.4680 102.4733 0005839 303.0756 56.8569 1.70474529 58662 GSAT0214 (GALILEO 18) 1 41862U 16069D 26117.07947230 .00000042 00000+0 00000+0 0 9996 2 41862 55.4657 102.4944 0004907 307.7514 52.1969 1.70474264 58770 GSAT0215 (GALILEO 19) 1 43055U 17079A 26118.74269244 -.00000031 00000+0 00000+0 0 9990 2 43055 55.0888 222.8668 0001936 262.5127 97.4612 1.70474778 52147 GSAT0216 (GALILEO 20) 1 43056U 17079B 26118.44729133 -.00000033 00000+0 00000+0 0 9998 2 43056 55.0886 222.8748 0002766 283.3929 76.5707 1.70474953 52157 GSAT0217 (GALILEO 21) 1 43057U 17079C 26119.25465610 -.00000027 00000+0 00000+0 0 9999 2 43057 55.0869 222.8506 0002160 304.4605 55.5177 1.70474848 52156 GSAT0218 (GALILEO 22) 1 43058U 17079D 26118.88813265 -.00000030 00000+0 00000+0 0 9995 2 43058 55.0868 222.8583 0003183 277.7345 82.2260 1.70474848 52172 GSAT0221 (GALILEO 25) 1 43564U 18060A 26119.96513008 -.00000090 00000+0 00000+0 0 9996 2 43564 57.1837 343.0832 0003661 320.9050 39.1137 1.70475859 48342 GSAT0222 (GALILEO 26) 1 43565U 18060B 26115.49200276 -.00000090 00000+0 00000+0 0 9991 2 43565 57.1892 343.2075 0002413 289.5902 70.4237 1.70475419 48313 GSAT0219 (GALILEO 23) 1 43566U 18060C 26119.81903127 -.00000090 00000+0 00000+0 0 9997 2 43566 57.1908 343.0918 0004098 318.8375 41.1767 1.70475881 48368 GSAT0220 (GALILEO 24) 1 43567U 18060D 26117.10722407 -.00000091 00000+0 00000+0 0 9999 2 43567 57.1835 343.1645 0003171 19.9224 340.1322 1.70475700 48302 GSAT0223 (GALILEO 27) 1 49809U 21116A 26116.95302962 -.00000091 00000+0 00000+0 0 9992 2 49809 57.1768 343.0587 0000603 260.8560 95.4130 1.70475733 27303 GSAT0224 (GALILEO 28) 1 49810U 21116B 26118.22861704 -.00000091 00000+0 00000+0 0 9990 2 49810 57.1765 343.0231 0000678 36.9401 134.7961 1.70475895 27359 GSAT0225 (GALILEO 29) 1 59598U 24079A 26117.37270582 .00000040 00000+0 00000+0 0 9991 2 59598 55.0877 102.4982 0002631 284.7027 74.9137 1.70474432 12442 GSAT0227 (GALILEO 30) 1 59600U 24079C 26119.90302948 .00000027 00000+0 00000+0 0 9993 2 59600 55.0849 102.4264 0001301 16.5164 343.4668 1.70474423 12548 GSAT0232 (GALILEO 32) 1 61182U 24167A 26119.68189679 -.00000024 00000+0 00000+0 0 9996 2 61182 55.1992 222.6437 0005165 218.0644 221.7115 1.70474570 10059 GSAT0226 (GALILEO 31) 1 61183U 24167B 26119.99015984 -.00000022 00000+0 00000+0 0 9996 2 61183 55.1979 222.6425 0001811 197.4384 162.8731 1.70474602 10030 GSAT0233 (GALILEO 33) 1 67160U 25302A 26119.90787927 .00000028 00000+0 00000+0 0 9998 2 67160 54.3063 103.5047 0002076 244.1655 162.1299 1.70474584 2300 GSAT0234 (GALILEO 34) 1 67162U 25302C 26117.48698374 .00000039 00000+0 00000+0 0 9990 2 67162 54.3058 103.5724 0003914 291.9910 248.6445 1.70474494 2318